CW1327 Weather Reports


Display with metric or nautical units.
time (UTC)temp
F
wind
direction
speed
MPH
gust
MPH
rain 1hr
in
rain 24hr
in
rain mn
in
humidity
%
barometer
mb
20190625074136 78 243 0.0 0.0 0.00 0.00 0.00 96 1015.9
20190625073621 78 243 0.0 0.0 0.00 0.00 0.00 96 1015.9
20190625073127 78 243 0.0 0.0 0.00 0.00 0.00 96 1015.9
20190625072632 78 243 0.0 0.0 0.00 0.00 0.00 95 1015.9
20190625072139 78 243 0.0 0.0 0.00 0.00 0.00 95 1015.9
20190625071623 78 243 0.0 0.0 0.00 0.00 0.00 95 1015.9
20190625071127 78 243 0.0 0.0 0.00 0.00 0.00 95 1016.0
20190625070629 78 244 0.0 0.0 0.00 0.00 0.00 95 1015.9
20190625070135 78 244 0.0 0.0 0.00 0.00 0.00 95 1016.0
20190625065624 78 244 0.0 0.0 0.00 0.00 0.00 95 1016.1
20190625065129 78 244 0.0 0.0 0.00 0.00 0.00 95 1016.0
20190625064634 78 244 0.0 0.0 0.00 0.00 0.00 95 1016.1
20190625064119 79 244 0.0 1.0 0.00 0.00 0.00 95 1016.1
20190625063622 78 244 0.0 2.0 0.00 0.00 0.00 95 1016.1
20190625063130 78 267 0.0 2.0 0.00 0.00 0.00 95 1016.2
20190625062638 78 257 1.0 1.0 0.00 0.00 0.00 95 1016.2
20190625062123 78 252 0.0 1.0 0.00 0.00 0.00 95 1016.3
20190625061626 78 251 0.0 1.0 0.00 0.00 0.00 95 1016.3
20190625061132 78 251 0.0 1.0 0.00 0.00 0.00 95 1016.4
20190625060635 78 255 0.0 1.0 0.00 0.00 0.00 95 1016.4
20190625060139 78 256 0.0 1.0 0.00 0.00 0.00 95 1016.5
20190625055621 78 256 0.0 0.0 0.00 0.00 0.00 95 1016.6
20190625055128 78 255 0.0 0.0 0.00 0.00 0.00 95 1016.6
20190625054631 78 256 0.0 0.0 0.00 0.00 0.00 94 1016.7
20190625054136 78 256 0.0 0.0 0.00 0.00 0.00 94 1016.7
20190625053624 78 256 0.0 1.0 0.00 0.00 0.00 94 1016.8
20190625053129 78 255 0.0 1.0 0.00 0.00 0.00 94 1016.9
20190625052632 79 256 0.0 1.0 0.00 0.00 0.00 94 1017.0
20190625052138 79 256 0.0 0.0 0.00 0.00 0.00 93 1017.0
20190625051639 79 256 0.0 1.0 0.00 0.00 0.00 94 1017.0
20190625051126 79 255 0.0 1.0 0.00 0.00 0.00 94 1017.0
20190625050630 79 242 0.0 1.0 0.00 0.00 0.00 94 1016.9
20190625050137 79 243 1.0 1.0 0.00 0.00 0.00 94 1017.0
20190625045619 79 235 0.0 1.0 0.00 0.00 0.00 93 1017.1
20190625045126 79 235 0.0 1.0 0.00 0.00 0.00 93 1017.1
20190625044628 79 235 0.0 1.0 0.00 0.00 0.00 92 1017.2
20190625044137 79 235 0.0 1.0 0.00 0.00 0.00 93 1017.2
20190625043620 79 235 0.0 1.0 0.00 0.00 0.00 92 1017.3
20190625043127 79 235 0.0 1.0 0.00 0.00 0.00 92 1017.3
20190625042627 79 235 0.0 1.0 0.00 0.00 0.00 92 1017.3
20190625042134 79 235 0.0 1.0 0.00 0.00 0.00 93 1017.3
20190625041636 79 235 0.0 1.0 0.00 0.00 0.00 92 1017.4
20190625041122 79 235 0.0 1.0 0.00 0.00 0.00 92 1017.3
20190625040628 79 224 0.0 1.0 0.00 0.00 0.00 92 1017.2
20190625040132 79 233 0.0 1.0 0.00 0.00 0.00 92 1017.3
20190625035620 79 233 0.0 1.0 0.00 0.00 0.00 92 1017.2
20190625035127 79 226 0.0 1.0 0.00 0.00 0.00 92 1017.2
20190625034638 79 255 0.0 1.0 0.00 0.00 0.00 92 1017.2
20190625034124 79 259 0.0 0.0 0.00 0.00 0.00 92 1017.3
20190625033627 80 259 0.0 1.0 0.00 0.00 0.00 91 1017.3
20190625033132 80 260 0.0 1.0 0.00 0.00 0.00 90 1017.3
20190625032619 80 260 0.0 1.0 0.00 0.00 0.00 90 1017.5
20190625032125 80 260 0.0 1.0 0.00 0.00 0.00 90 1017.4
20190625031629 80 260 0.0 1.0 0.00 0.00 0.00 90 1017.3
20190625031135 80 260 0.0 1.0 0.00 0.00 0.00 90 1017.3
20190625030618 80 260 0.0 1.0 0.00 0.00 0.00 90 1017.6
20190625030126 81 260 0.0 1.0 0.00 0.00 0.00 89 1017.5
20190625025634 81 260 0.0 1.0 0.00 0.00 0.00 90 1017.5
20190625025117 81 251 0.0 1.0 0.00 0.00 0.00 89 1017.5
20190625024622 81 240 0.0 1.0 0.00 0.00 0.00 89 1017.6
20190625024131 81 240 0.0 1.0 0.00 0.00 0.00 89 1017.6
20190625023635 81 240 0.0 1.0 0.00 0.00 0.00 88 1017.4
20190625023124 81 240 0.0 1.0 0.00 0.00 0.00 88 1017.3
20190625022626 81 238 0.0 1.0 0.00 0.00 0.00 87 1017.3
20190625022132 81 238 0.0 1.0 0.00 0.00 0.00 87 1017.3
20190625021634 81 237 0.0 1.0 0.00 0.00 0.00 87 1016.9
20190625021121 81 237 0.0 2.0 0.00 0.00 0.00 87 1016.9
20190625020631 81 243 0.0 2.0 0.00 0.00 0.00 87 1016.9
20190625020137 82 245 1.0 2.0 0.00 0.00 0.00 86 1016.9
20190625015621 82 258 0.0 2.0 0.00 0.00 0.00 86 1016.9
20190625015130 82 273 1.0 1.0 0.00 0.00 0.00 86 1016.9
20190625014631 82 255 0.0 2.0 0.00 0.00 0.00 86 1016.8
20190625014121 82 257 1.0 3.0 0.00 0.00 0.00 85 1016.8
20190625013628 82 259 0.0 3.0 0.00 0.00 0.00 85 1016.9
20190625013134 82 276 1.0 3.0 0.00 0.00 0.00 85 1016.8
20190625012620 82 253 2.0 3.0 0.00 0.00 0.00 84 1016.8
20190625012124 82 264 1.0 2.0 0.00 0.00 0.00 84 1016.8
20190625011634 82 262 1.0 2.0 0.00 0.00 0.00 84 1016.6
20190625011121 83 266 1.0 2.0 0.00 0.00 0.00 83 1016.7
20190625010624 83 257 1.0 2.0 0.00 0.00 0.00 83 1016.6
20190625010132 83 257 1.0 2.0 0.00 0.00 0.00 82 1016.7
20190625005619 83 271 1.0 2.0 0.00 0.00 0.00 81 1016.7
20190625005127 83 271 1.0 2.0 0.00 0.00 0.00 80 1016.6
20190625004631 83 266 1.0 2.0 0.00 0.00 0.00 80 1016.5
20190625004138 84 241 1.0 2.0 0.00 0.00 0.00 79 1016.4
20190625003620 84 268 1.0 2.0 0.00 0.00 0.00 79 1016.5
20190625003125 84 283 1.0 2.0 0.00 0.00 0.00 78 1016.4
20190625002628 84 271 1.0 3.0 0.00 0.00 0.00 78 1016.4
20190625002119 85 297 1.0 3.0 0.00 0.00 0.00 76 1016.4
20190625001624 85 282 1.0 3.0 0.00 0.00 0.00 75 1016.4
20190625001131 85 265 1.0 3.0 0.00 0.00 0.00 74 1016.3
20190625000634 86 319 1.0 3.0 0.00 0.00 0.00 73 1016.3
20190625000120 86 284 2.0 5.0 0.00 0.00 0.00 72 1016.3
20190624235624 87 295 2.0 5.0 0.00 0.00 0.00 71 1016.3
20190624235133 87 318 2.0 4.0 0.00 0.00 0.00 71 1016.3
20190624234617 87 302 2.0 5.0 0.00 0.00 0.00 71 1016.3
20190624234124 88 313 2.0 5.0 0.00 0.00 0.00 70 1016.3
20190624233627 88 302 1.0 4.0 0.00 0.00 0.00 69 1016.1
20190624233117 88 323 3.0 6.0 0.00 0.00 0.00 68 1016.1
20190624232624 89 293 2.0 6.0 0.00 0.00 0.00 68 1016.1
20190624232130 89 309 3.0 5.0 0.00 0.00 0.00 66 1016.1
20190624231633 89 331 2.0 4.0 0.00 0.00 0.00 65 1016.0
20190624231120 89 330 2.0 6.0 0.00 0.00 0.00 65 1016.0
20190624230625 89 276 3.0 6.0 0.00 0.00 0.00 65 1016.0
20190624230133 90 302 2.0 7.0 0.00 0.00 0.00 65 1016.0
20190624225635 90 272 4.0 7.0 0.00 0.00 0.00 64 1016.0
20190624225120 90 302 3.0 6.0 0.00 0.00 0.00 65 1016.1
20190624224625 90 233 3.0 6.0 0.00 0.00 0.00 64 1016.1
20190624224134 90 314 4.0 8.0 0.00 0.00 0.00 64 1016.1
20190624223639 90 314 4.0 8.0 0.00 0.00 0.00 63 1016.1
20190624223125 91 241 4.0 8.0 0.00 0.00 0.00 62 1016.1
20190624222628 91 348 3.0 8.0 0.00 0.00 0.00 61 1016.1
20190624222137 91 260 4.0 8.0 0.00 0.00 0.00 60 1016.1
20190624221622 91 275 2.0 7.0 0.00 0.00 0.00 61 1016.1
20190624221130 92 306 3.0 7.0 0.00 0.00 0.00 59 1016.2
20190624220634 92 324 3.0 7.0 0.00 0.00 0.00 58 1016.2
20190624220122 92 293 3.0 6.0 0.00 0.00 0.00 59 1016.1
20190624215628 92 307 3.0 7.0 0.00 0.00 0.00 58 1016.1
20190624215128 92 274 4.0 8.0 0.00 0.00 0.00 56 1016.1
20190624214635 92 314 4.0 8.0 0.00 0.00 0.00 55 1016.1
20190624214123 92 224 5.0 8.0 0.00 0.00 0.00 54 1016.1
20190624213626 92 299 3.0 8.0 0.00 0.00 0.00 55 1016.2
20190624212628 93 259 2.0 7.0 0.00 0.00 0.00 53 1016.2
20190624212136 93 354 3.0 7.0 0.00 0.00 0.00 50 1016.3
20190624211619 93 297 4.0 8.0 0.00 0.00 0.00 53 1016.4
20190624211125 93 274 4.0 8.0 0.00 0.00 0.00 53 1016.3
20190624210633 93 300 3.0 6.0 0.00 0.00 0.00 54 1016.2
20190624210122 93 297 3.0 8.0 0.00 0.00 0.00 55 1016.3
20190624205624 92 335 5.0 8.0 0.00 0.00 0.00 55 1016.3
20190624205128 92 307 3.0 9.0 0.00 0.00 0.00 56 1016.2
20190624204629 93 311 4.0 9.0 0.00 0.00 0.00 58 1016.3
20190624204138 93 248 3.0 9.0 0.00 0.00 0.00 57 1016.2
20190624203621 93 316 5.0 9.0 0.00 0.00 0.00 55 1016.4
20190624203128 93 268 2.0 8.0 0.00 0.00 0.00 56 1016.4
20190624202634 93 261 3.0 8.0 0.00 0.00 0.00 55 1016.5
20190624202119 93 304 5.0 9.0 0.00 0.00 0.00 55 1016.6
20190624201625 93 283 3.0 10.0 0.00 0.00 0.00 57 1016.6
20190624201131 93 302 4.0 10.0 0.00 0.00 0.00 57 1016.7
20190624200619 92 304 6.0 10.0 0.00 0.00 0.00 56 1016.7
20190624200125 93 300 4.0 10.0 0.00 0.00 0.00 55 1016.7
20190624195628 93 312 6.0 10.0 0.00 0.00 0.00 57 1016.8
20190624195134 93 6 5.0 9.0 0.00 0.00 0.00 60 1016.7
20190624194636 93 307 4.0 11.0 0.00 0.00 0.00 60 1016.7
20190624194121 93 302 4.0 11.0 0.00 0.00 0.00 58 1016.7
20190624193625 93 281 4.0 8.0 0.00 0.00 0.00 59 1016.7
20190624193130 93 274 3.0 8.0 0.00 0.00 0.00 59 1016.7
20190624192635 93 277 3.0 7.0 0.00 0.00 0.00 59 1016.6
20190624192122 93 332 3.0 8.0 0.00 0.00 0.00 58 1016.6
20190624191631 93 263 3.0 6.0 0.00 0.00 0.00 58 1016.7
20190624191136 92 247 4.0 11.0 0.00 0.00 0.00 57 1016.7
20190624190621 93 302 4.0 11.0 0.00 0.00 0.00 59 1016.8
20190624190128 93 122 4.0 9.0 0.00 0.00 0.00 57 1016.9
20190624185638 93 308 2.0 8.0 0.00 0.00 0.00 57 1016.9
20190624185123 93 283 1.0 8.0 0.00 0.00 0.00 54 1017.0
20190624184626 93 285 4.0 10.0 0.00 0.00 0.00 56 1017.0
20190624184134 93 224 5.0 10.0 0.00 0.00 0.00 54 1017.0
20190624183636 93 283 5.0 10.0 0.00 0.00 0.00 55 1017.0
20190624183122 93 266 6.0 10.0 0.00 0.00 0.00 55 1017.0
20190624182628 93 318 4.0 9.0 0.00 0.00 0.00 56 1017.0
20190624182120 93 309 3.0 9.0 0.00 0.00 0.00 54 1017.0
20190624181624 93 288 4.0 9.0 0.00 0.00 0.00 56 1017.0
20190624181128 93 263 3.0 9.0 0.00 0.00 0.00 57 1017.0
20190624180629 92 311 4.0 9.0 0.00 0.00 0.00 58 1016.9
20190624180137 93 285 5.0 8.0 0.00 0.00 0.00 59 1016.9
20190624175623 93 256 3.0 8.0 0.00 0.00 0.00 60 1017.1
20190624175128 92 252 4.0 8.0 0.00 0.00 0.00 59 1017.0
20190624174631 92 256 3.0 7.0 0.00 0.00 0.00 60 1017.1
20190624174135 93 252 4.0 7.0 0.00 0.00 0.00 60 1017.1
20190624173619 93 331 2.0 9.0 0.00 0.00 0.00 60 1017.1
20190624173129 93 281 5.0 9.0 0.00 0.00 0.00 58 1017.2
20190624172632 93 65 2.0 7.0 0.00 0.00 0.00 59 1017.2
20190624172117 92 221 1.0 8.0 0.00 0.00 0.00 60 1017.3
20190624171621 91 255 2.0 8.0 0.00 0.00 0.00 61 1017.4
20190624171130 91 278 4.0 8.0 0.00 0.00 0.00 63 1017.4
20190624170632 92 289 4.0 8.0 0.00 0.00 0.00 62 1017.4
20190624170119 92 288 4.0 6.0 0.00 0.00 0.00 63 1017.5
20190624165624 92 262 4.0 6.0 0.00 0.00 0.00 62 1017.4
20190624165130 91 139 3.0 7.0 0.00 0.00 0.00 63 1017.4
20190624164636 92 271 2.0 8.0 0.00 0.00 0.00 64 1017.5
20190624164128 92 228 4.0 11.0 0.00 0.00 0.00 61 1017.5
20190624163629 92 250 5.0 11.0 0.00 0.00 0.00 62 1017.4
20190624163137 92 282 1.0 5.0 0.00 0.00 0.00 61 1017.4
20190624162619 91 267 3.0 5.0 0.00 0.00 0.00 63 1017.5
20190624162147 91 315 2.0 7.0 0.00 0.00 0.00 61 1017.5
20190624161634 91 300 3.0 9.0 0.00 0.00 0.00 62 1017.5
20190624161122 91 245 3.0 9.0 0.00 0.00 0.00 62 1017.5
20190624160624 91 292 3.0 7.0 0.00 0.00 0.00 64 1017.5
20190624160129 91 274 3.0 7.0 0.00 0.00 0.00 65 1017.5
20190624155619 91 216 2.0 6.0 0.00 0.00 0.00 65 1017.6
20190624155124 90 262 2.0 7.0 0.00 0.00 0.00 66 1017.6
20190624154633 90 230 2.0 6.0 0.00 0.00 0.00 67 1017.6
20190624154118 90 279 3.0 6.0 0.00 0.00 0.00 65 1017.9
20190624153622 90 237 3.0 5.0 0.00 0.00 0.00 68 1017.7
20190624153129 90 223 3.0 7.0 0.00 0.00 0.00 67 1017.7
20190624152632 90 271 3.0 7.0 0.00 0.00 0.00 68 1017.6
20190624152120 89 247 2.0 5.0 0.00 0.00 0.00 68 1017.5
20190624151625 89 285 2.0 6.0 0.00 0.00 0.00 68 1017.6
20190624151131 89 237 2.0 9.0 0.00 0.00 0.00 69 1017.7
20190624150631 90 302 4.0 9.0 0.00 0.00 0.00 67 1017.6
20190624150118 89 155 2.0 5.0 0.00 0.00 0.00 68 1017.5
20190624145627 88 253 3.0 6.0 0.00 0.00 0.00 69 1017.6
20190624145133 88 304 2.0 7.0 0.00 0.00 0.00 69 1017.5
20190624144617 89 252 2.0 5.0 0.00 0.00 0.00 69 1017.5
20190624144126 88 239 1.0 3.0 0.00 0.00 0.00 72 1017.4
20190624143629 88 279 2.0 6.0 0.00 0.00 0.00 70 1017.4
20190624143134 87 281 3.0 6.0 0.00 0.00 0.00 73 1017.4
20190624142619 87 285 3.0 5.0 0.00 0.00 0.00 73 1017.4
20190624142124 87 311 2.0 5.0 0.00 0.00 0.00 74 1017.4
20190624141627 88 288 2.0 4.0 0.00 0.00 0.00 73 1017.3
20190624141132 88 238 2.0 4.0 0.00 0.00 0.00 71 1017.4
20190624140620 88 216 2.0 4.0 0.00 0.00 0.00 73 1017.3
20190624140126 87 231 2.0 5.0 0.00 0.00 0.00 73 1017.3
20190624135628 87 285 2.0 5.0 0.00 0.00 0.00 77 1017.5
20190624135134 86 126 1.0 5.0 0.00 0.00 0.00 79 1017.4
20190624134618 86 271 2.0 5.0 0.00 0.00 0.00 80 1017.5
20190624134127 86 262 1.0 4.0 0.00 0.00 0.00 80 1017.4
20190624133630 87 282 1.0 3.0 0.00 0.00 0.00 81 1017.4
20190624133136 86 250 1.0 3.0 0.00 0.00 0.00 82 1017.4
20190624132619 86 254 1.0 3.0 0.00 0.00 0.00 80 1017.3
20190624132123 87 148 0.0 2.0 0.00 0.00 0.00 82 1017.4
20190624131628 86 257 1.0 2.0 0.00 0.00 0.00 81 1017.4
20190624131137 86 103 1.0 1.0 0.00 0.00 0.00 81 1017.3
20190624130637 86 105 0.0 1.0 0.00 0.00 0.00 83 1017.2
20190624130121 85 103 0.0 1.0 0.00 0.01 0.00 84 1017.2
20190624125629 85 103 1.0 1.0 0.00 0.01 0.00 85 1017.2
20190624125135 84 168 0.0 1.0 0.00 0.01 0.00 87 1017.2
20190624124632 84 141 0.0 1.0 0.00 0.01 0.00 88 1017.1
20190624124117 83 139 1.0 2.0 0.00 0.01 0.00 89 1017.0
20190624123626 82 125 1.0 3.0 0.00 0.01 0.00 91 1016.8
20190624122620 81 172 1.0 2.0 0.00 0.01 0.00 94 1016.8
20190624122125 80 147 0.0 2.0 0.00 0.01 0.00 95 1016.9
20190624121633 80 156 0.0 2.0 0.00 0.01 0.00 96 1016.8
20190624120626 79 188 1.0 2.0 0.00 0.01 0.00 97 1016.8
20190624120134 79 158 0.0 1.0 0.00 0.01 0.00 98 1016.8
20190624115637 78 158 0.0 1.0 0.00 0.01 0.00 98 1016.6
20190624115124 77 160 0.0 1.0 0.00 0.01 0.00 98 1016.6
20190624114625 77 158 0.0 2.0 0.00 0.01 0.00 99 1016.6
20190624114131 77 158 0.0 2.0 0.00 0.01 0.00 99 1016.6
20190624113636 76 157 0.0 1.0 0.00 0.01 0.00 99 1016.5
20190624113123 76 172 0.0 1.0 0.00 0.01 0.00 99 1016.4
20190624112631 76 159 0.0 1.0 0.00 0.01 0.00 99 1016.3
20190624112118 75 154 0.0 0.0 0.00 0.01 0.00 99 1016.4
20190624111623 75 154 0.0 0.0 0.00 0.01 0.00 99 1016.4
20190624111131 75 154 0.0 0.0 0.00 0.01 0.00 99 1016.3
20190624110635 75 153 0.0 0.0 0.00 0.01 0.00 99 1016.4
20190624110124 75 153 0.0 0.0 0.00 0.01 0.00 98 1016.5
20190624105630 75 153 0.0 0.0 0.00 0.01 0.00 98 1016.5
20190624105117 75 153 0.0 0.0 0.00 0.01 0.00 98 1016.4
20190624104625 75 153 0.0 0.0 0.00 0.01 0.00 98 1016.4
20190624104131 75 153 0.0 0.0 0.00 0.01 0.00 98 1016.4
20190624103619 75 153 0.0 0.0 0.00 0.01 0.00 98 1016.4
20190624103127 75 153 0.0 0.0 0.00 0.01 0.00 98 1016.4
20190624102629 75 153 0.0 0.0 0.00 0.01 0.00 98 1016.4
20190624102117 75 153 0.0 1.0 0.00 0.01 0.00 98 1016.3
20190624101623 76 172 0.0 2.0 0.00 0.01 0.00 98 1016.3
20190624101131 76 172 1.0 2.0 0.00 0.01 0.00 98 1016.2
20190624100636 76 177 1.0 2.0 0.00 0.01 0.00 98 1016.1
20190624100122 76 162 0.0 1.0 0.00 0.01 0.00 98 1016.0
20190624095630 76 160 0.0 1.0 0.00 0.01 0.00 98 1016.2
20190624095134 76 160 0.0 1.0 0.00 0.01 0.00 99 1016.1
20190624094622 76 149 0.0 1.0 0.00 0.01 0.00 98 1016.1
20190624094128 76 184 0.0 1.0 0.00 0.01 0.00 99 1016.1
20190624093633 76 181 0.0 1.0 0.00 0.01 0.00 99 1016.1
20190624093139 75 262 0.0 0.0 0.00 0.01 0.00 98 1016.0
20190624092623 75 262 0.0 0.0 0.00 0.01 0.00 98 1016.0
20190624092131 75 262 0.0 0.0 0.00 0.01 0.00 98 1016.0
20190624091636 75 262 0.0 0.0 0.00 0.01 0.00 98 1015.9
20190624091122 75 262 0.0 0.0 0.00 0.01 0.00 98 1015.8
20190624090625 76 262 0.0 1.0 0.00 0.01 0.00 98 1016.0
20190624090130 76 262 0.0 1.0 0.00 0.01 0.00 98 1016.0
20190624085620 76 262 0.0 1.0 0.00 0.01 0.00 98 1016.1
20190624085126 76 262 0.0 1.0 0.00 0.01 0.00 98 1016.1
20190624084630 75 262 0.0 1.0 0.00 0.01 0.00 98 1015.9
20190624084136 75 262 0.0 0.0 0.00 0.01 0.00 98 1016.0
20190624083619 75 262 0.0 1.0 0.00 0.01 0.00 98 1015.8
20190624083125 75 262 0.0 1.0 0.00 0.01 0.00 98 1015.9
20190624082629 75 262 0.0 1.0 0.00 0.01 0.00 98 1015.9
20190624082136 75 262 0.0 0.0 0.00 0.01 0.00 98 1016.0
20190624081619 75 262 0.0 0.0 0.00 0.01 0.00 98 1015.9
20190624081126 76 262 0.0 0.0 0.00 0.01 0.00 98 1016.0
20190624080630 76 262 0.0 0.0 0.00 0.01 0.00 98 1016.1
20190624080120 76 262 0.0 0.0 0.00 0.01 0.00 98 1016.1
20190624075636 76 262 0.0 0.0 0.00 0.01 0.00 98 1016.1
20190624075124 76 262 0.0 0.0 0.00 0.01 0.00 98 1016.0
20190624074626 75 262 0.0 0.0 0.00 0.01 0.00 98 1016.1